period_start,C,m1,H,J0,J1,J2,J3,J4,J5,JA,JB,JC,JD,JJ,JK,JN,#
2016-06-10 00:01:02,0.01,0.46,0.00,25.53,29.10,31.78,14.37,45.92,1019.55,2029.05,3368.94,2995.74,3402.01,600.31,593.07,11.51,0000 0000 0000 0000 000000
2016-06-10 00:06:03,0.03,0.46,0.00,25.55,29.10,31.74,14.29,45.83,1019.55,2029.06,3368.30,2995.08,3401.92,599.98,592.65,11.56,0000 0000 0000 0000 000000
2016-06-10 00:11:04,0.01,0.46,0.00,25.55,29.11,31.76,14.33,45.69,1019.55,2029.04,3367.88,2994.99,3401.13,599.82,592.28,11.61,0000 0000 0000 0000 000000
2016-06-10 00:16:06,0.02,0.46,0.00,25.57,29.12,31.76,14.34,45.78,1019.55,2029.04,3367.15,2994.75,3400.99,599.95,592.66,11.66,0000 0000 0000 0000 000000
2016-06-10 00:21:07,0.02,0.46,0.00,25.57,29.12,31.77,14.35,45.75,1019.55,2029.02,3366.88,2994.08,3400.42,600.20,592.69,11.71,0000 0000 0000 0000 000000
2016-06-10 00:26:08,0.01,0.47,0.00,25.58,29.12,31.76,14.42,46.10,1019.56,2029.02,3366.17,2994.00,3400.01,600.43,592.97,11.76,0000 0000 0000 0000 000000
2016-06-10 00:31:10,0.02,0.47,0.00,25.59,29.12,31.78,14.33,45.82,1019.56,2029.03,3365.64,2993.73,3399.79,600.08,592.62,11.81,0000 0000 0000 0000 000000
2016-06-10 00:36:11,0.03,0.47,0.00,25.60,29.12,31.77,14.39,45.87,1019.55,2029.04,3365.02,2993.08,3399.05,600.19,592.72,11.86,0000 0000 0000 0000 000000
2016-06-10 00:41:13,0.01,0.47,0.00,25.60,29.13,31.78,14.29,45.72,1019.56,2029.04,3364.43,2993.00,3398.98,600.20,592.68,11.91,0000 0000 0000 0000 000000
2016-06-10 00:46:14,0.02,0.47,0.00,25.61,29.14,31.78,14.34,45.68,1019.57,2029.03,3364.01,2992.77,3398.32,599.96,592.44,11.96,0000 0000 0000 0000 000000
2016-06-10 00:51:15,0.03,0.47,0.00,25.62,29.15,31.78,14.38,45.90,1019.57,2029.08,3363.53,2992.17,3398.00,599.62,591.99,12.01,0000 0000 0000 0000 000000
2016-06-10 00:56:16,0.01,0.47,0.00,25.62,29.15,31.80,14.37,45.95,1019.68,2029.03,3363.01,2992.00,3397.72,600.26,592.84,12.06,0000 0000 0000 0000 000000
2016-06-10 01:01:18,0.03,0.47,0.00,25.63,29.15,31.81,14.35,45.83,1019.71,2029.01,3362.34,2991.79,3397.04,600.00,592.54,12.11,0000 0000 0000 0000 000000
2016-06-10 01:06:19,0.02,0.47,0.00,25.64,29.16,31.81,14.28,45.54,1019.60,2029.01,3361.90,2991.15,3396.92,599.85,592.47,12.16,0000 0000 0000 0000 000000
2016-06-10 01:11:20,0.02,0.48,0.00,25.65,29.17,31.83,14.37,45.79,1019.63,2029.00,3361.08,2990.99,3396.11,600.03,592.53,12.21,0000 0000 0000 0000 000000
2016-06-10 01:16:21,0.02,0.48,0.00,25.66,29.17,31.81,14.42,45.77,1019.91,2029.01,3360.82,2990.61,3395.98,600.01,592.68,12.26,0000 0000 0000 0000 000000
2016-06-10 01:21:22,0.03,0.48,0.00,25.65,29.17,31.83,14.37,45.66,1019.94,2029.00,3360.12,2990.05,3395.38,599.91,592.53,12.31,0000 0000 0000 0000 000000
2016-06-10 01:26:24,0.01,0.48,0.00,25.66,29.17,31.83,14.34,45.70,1020.01,2029.00,3359.54,2989.99,3395.00,600.04,592.68,12.36,0000 0000 0000 0000 000000
2016-06-10 01:31:24,0.04,0.48,0.00,25.65,29.18,31.83,14.41,45.94,1020.03,2029.00,3358.85,2989.43,3394.46,600.18,593.11,12.41,0000 0000 0000 0000 000000
2016-06-10 01:36:26,0.01,0.48,0.00,25.65,29.18,31.85,14.36,45.73,1020.03,2029.00,3358.08,2989.01,3394.01,600.00,592.77,12.46,0000 0000 0000 0000 000000
2016-06-10 01:41:27,0.02,0.48,0.00,25.65,29.19,31.85,14.37,45.62,1020.03,2029.00,3357.80,2988.75,3393.51,600.23,592.94,12.51,0000 0000 0000 0000 000000
2016-06-10 01:46:28,0.03,0.49,0.00,25.65,29.20,31.84,14.37,45.63,1020.03,2029.00,3357.03,2988.05,3393.00,600.19,592.91,12.56,0000 0000 0000 0000 000000
2016-06-10 01:51:30,0.02,0.49,0.00,25.66,29.20,31.84,14.39,45.63,1020.03,2029.00,3356.48,2987.99,3392.57,600.00,592.67,12.61,0000 0000 0000 0000 000000
2016-06-10 01:56:31,0.02,0.49,0.00,25.67,29.20,31.82,14.34,45.54,1020.05,2029.00,3355.95,2987.53,3392.03,599.86,592.58,12.66,0000 0000 0000 0000 000000
2016-06-10 02:01:32,0.02,0.49,0.00,25.67,29.20,31.84,14.38,45.57,1020.05,2029.00,3355.13,2987.02,3391.73,600.07,592.77,12.71,0000 0000 0000 0000 000000
2016-06-10 02:06:33,0.02,0.49,0.00,25.67,29.20,31.86,14.35,45.52,1020.08,2029.00,3354.71,2986.87,3391.04,599.86,592.47,12.76,0000 0000 0000 0000 000000
2016-06-10 02:11:35,0.02,0.49,0.00,25.66,29.20,31.89,14.32,45.55,1020.23,2028.99,3354.02,2986.13,3390.95,599.88,592.50,12.81,0000 0000 0000 0000 000000
2016-06-10 02:16:36,0.02,0.49,0.00,25.66,29.20,31.86,14.45,45.82,1020.45,2028.99,3353.48,2985.98,3390.20,600.34,593.33,12.86,0000 0000 0000 0000 000000
2016-06-10 02:21:38,0.03,0.50,0.00,25.68,29.21,31.87,14.25,45.53,1020.51,2028.99,3352.95,2985.43,3389.97,599.89,592.84,12.91,0000 0000 0000 0000 000000
2016-06-10 02:26:39,0.03,0.50,0.00,25.70,29.22,31.87,14.32,45.61,1020.52,2028.98,3352.32,2985.03,3389.34,599.50,592.53,12.96,0000 0000 0000 0000 000000
2016-06-10 02:31:40,0.00,0.50,0.00,25.70,29.22,31.87,14.34,45.63,1020.52,2028.99,3351.84,2984.93,3388.99,599.92,592.96,13.01,0000 0000 0000 0000 000000
2016-06-10 02:36:41,0.04,0.50,0.00,25.71,29.22,31.86,14.35,45.68,1020.52,2028.99,3351.06,2984.27,3388.46,600.04,592.66,13.06,0000 0000 0000 0000 000000
2016-06-10 02:41:43,0.01,0.50,0.00,25.72,29.22,31.85,14.37,45.60,1020.51,2028.98,3350.64,2984.00,3388.00,600.15,592.96,13.11,0000 0000 0000 0000 000000
2016-06-10 02:46:44,0.03,0.50,0.00,25.73,29.24,31.89,14.41,45.67,1020.50,2028.98,3349.93,2983.73,3387.52,599.85,592.68,13.16,0000 0000 0000 0000 000000
2016-06-10 02:51:45,0.03,0.50,0.00,25.72,29.25,31.87,14.38,45.48,1020.51,2028.98,3349.10,2983.03,3386.97,600.19,592.94,13.21,0000 0000 0000 0000 000000
2016-06-10 02:56:47,0.01,0.50,0.00,25.72,29.25,31.90,14.27,45.66,1020.50,2028.95,3348.85,2982.87,3386.25,599.85,592.68,13.26,0000 0000 0000 0000 000000
2016-06-10 03:01:48,0.03,0.51,0.00,25.72,29.26,31.95,14.35,45.52,1020.52,2028.90,3348.05,2982.10,3385.95,599.78,592.55,13.31,0000 0000 0000 0000 000000
2016-06-10 03:06:50,0.02,0.51,0.00,25.74,29.27,31.92,14.44,45.95,1020.52,2028.83,3347.34,2981.93,3385.23,600.15,593.05,13.36,0000 0000 0000 0000 000000
2016-06-10 03:11:51,-0.02,0.51,0.00,25.75,29.27,31.92,14.43,45.72,1020.52,2028.39,3346.92,2981.18,3384.81,600.02,592.87,13.41,0000 0000 0000 0000 000000
2016-06-10 03:16:53,0.02,0.51,0.00,25.75,29.28,31.96,14.41,46.07,1020.52,2028.14,3346.02,2980.94,3384.04,600.12,592.94,13.46,0000 0000 0000 0000 000000
2016-06-10 03:21:54,0.04,0.51,0.00,25.75,29.29,31.93,14.34,45.85,1020.52,2028.04,3345.21,2980.16,3383.47,600.04,593.06,13.51,0000 0000 0000 0000 000000
2016-06-10 03:26:55,0.02,0.51,0.00,25.75,29.30,31.94,14.40,45.82,1020.53,2028.06,3344.58,2980.00,3383.01,600.27,593.25,13.56,0000 0000 0000 0000 000000
2016-06-10 03:31:57,0.03,0.51,0.00,25.76,29.30,31.94,14.27,45.61,1020.52,2028.03,3343.98,2979.52,3382.41,599.71,592.51,13.62,0000 0000 0000 0000 000000
2016-06-10 03:36:59,0.02,0.51,0.00,25.77,29.30,31.96,14.43,46.31,1020.52,2028.01,3343.25,2979.02,3381.92,600.42,593.28,13.67,0000 0000 0000 0000 000000
2016-06-10 03:42:00,0.03,0.51,0.00,25.78,29.30,31.95,14.29,45.99,1020.52,2028.00,3342.65,2978.71,3381.13,599.79,592.56,13.72,0000 0000 0000 0000 000000
2016-06-10 03:47:01,0.02,0.52,0.00,25.79,29.31,31.96,14.30,45.72,1020.52,2028.00,3342.03,2978.06,3380.98,599.73,592.47,13.77,0000 0000 0000 0000 000000
2016-06-10 03:52:03,0.01,0.52,0.00,25.79,29.32,31.98,14.38,45.91,1020.54,2028.00,3341.82,2977.99,3380.51,599.95,592.71,13.82,0000 0000 0000 0000 000000
2016-06-10 03:57:04,0.02,0.52,0.00,25.79,29.32,31.97,14.37,45.60,1020.63,2028.00,3341.08,2977.86,3380.03,599.89,592.56,13.87,0000 0000 0000 0000 000000
2016-06-10 04:02:06,0.02,0.52,0.00,25.79,29.32,31.96,14.39,45.82,1020.85,2028.00,3340.87,2977.17,3379.99,599.84,592.68,13.92,0000 0000 0000 0000 000000
2016-06-10 04:07:07,0.02,0.52,0.00,25.80,29.32,32.00,14.31,45.40,1020.90,2028.00,3340.35,2977.01,3379.72,600.00,592.95,13.97,0000 0000 0000 0000 000000
2016-06-10 04:12:08,0.01,0.52,0.00,25.80,29.32,32.03,14.38,45.76,1020.97,2028.00,3340.01,2976.99,3379.07,599.98,593.01,14.02,0000 0000 0000 0000 000000
2016-06-10 04:17:10,0.02,0.52,0.00,25.82,29.32,32.02,14.49,45.79,1021.00,2028.00,3339.71,2976.77,3378.99,600.31,593.36,14.07,0000 0000 0000 0000 000000
2016-06-10 04:22:11,0.03,0.52,0.00,25.82,29.33,32.00,14.34,45.63,1021.01,2028.00,3339.04,2976.11,3378.59,600.08,593.20,14.12,0000 0000 0000 0000 000000
2016-06-10 04:27:12,0.00,0.52,0.00,25.82,29.33,31.98,14.30,45.64,1021.02,2028.00,3338.97,2976.01,3378.10,599.98,592.95,14.17,0000 0000 0000 0000 000000
2016-06-10 04:32:14,0.01,0.53,0.00,25.82,29.33,32.06,14.39,45.73,1021.06,2028.00,3338.21,2976.00,3377.99,599.82,592.82,14.22,0000 0000 0000 0000 000000
2016-06-10 04:37:15,0.01,0.53,0.00,25.82,29.34,32.02,14.34,45.58,1021.20,2028.00,3337.94,2975.77,3377.67,600.00,593.06,14.27,0000 0000 0000 0000 000000
2016-06-10 04:42:16,0.03,0.53,0.00,25.82,29.34,32.03,14.37,45.63,1021.49,2028.00,3337.39,2975.16,3377.08,600.04,593.23,14.32,0000 0000 0000 0000 000000
2016-06-10 04:47:18,0.00,0.53,0.00,25.82,29.35,32.01,14.40,45.76,1021.50,2028.00,3337.02,2975.01,3377.00,600.16,593.52,14.37,0000 0000 0000 0000 000000
2016-06-10 04:52:19,0.01,0.53,0.00,25.82,29.35,32.04,14.32,45.69,1021.51,2028.00,3336.83,2974.97,3376.83,599.51,592.80,14.42,0000 0000 0000 0000 000000
2016-06-10 04:57:20,0.02,0.53,0.00,25.82,29.35,32.03,14.39,45.71,1021.50,2027.99,3336.16,2974.72,3376.22,600.38,593.65,14.47,0000 0000 0000 0000 000000
2016-06-10 05:02:22,0.02,0.53,0.00,25.82,29.35,32.05,14.43,45.79,1021.50,2027.99,3336.00,2974.12,3376.01,600.00,593.25,14.52,0000 0000 0000 0000 000000
2016-06-10 05:07:23,0.00,0.53,0.00,25.84,29.35,32.01,14.40,45.48,1021.52,2027.99,3335.80,2974.00,3376.00,600.05,593.44,14.57,0000 0000 0000 0000 000000
2016-06-10 05:12:24,0.01,0.53,0.00,25.85,29.35,31.98,14.34,45.51,1021.62,2027.99,3335.18,2974.00,3375.95,599.63,592.85,14.62,0000 0000 0000 0000 000000
2016-06-10 05:17:26,0.01,0.53,0.00,25.84,29.35,32.00,14.39,45.59,1021.58,2027.99,3335.02,2973.99,3375.58,599.95,593.05,14.67,0000 0000 0000 0000 000000
2016-06-10 05:22:27,0.00,0.53,0.00,25.85,29.35,32.02,14.38,45.83,1021.55,2027.99,3334.98,2973.97,3375.12,599.80,593.09,14.72,0000 0000 0000 0000 000000
2016-06-10 05:27:28,0.02,0.53,0.00,25.85,29.35,32.02,14.40,45.46,1021.54,2027.99,3334.32,2973.58,3375.01,599.97,593.19,14.77,0000 0000 0000 0000 000000
2016-06-10 05:32:29,0.01,0.53,0.00,25.84,29.35,32.05,14.30,45.42,1021.55,2027.99,3334.04,2973.11,3374.99,600.15,593.34,14.82,0000 0000 0000 0000 000000
2016-06-10 05:37:30,0.00,0.54,0.00,25.86,29.35,32.03,14.27,45.72,1021.65,2027.99,3333.96,2973.00,3374.69,600.17,593.31,14.87,0000 0000 0000 0000 000000
2016-06-10 05:42:32,0.01,0.54,0.00,25.85,29.35,32.02,14.39,45.72,1021.71,2027.99,3333.40,2972.99,3374.08,599.97,593.28,14.92,0000 0000 0000 0000 000000
2016-06-10 05:47:33,0.00,0.54,0.00,25.85,29.36,32.05,14.45,45.69,1021.77,2027.99,3333.05,2972.98,3374.00,600.66,593.95,14.97,0000 0000 0000 0000 000000
2016-06-10 05:52:35,0.01,0.54,0.00,25.86,29.37,32.05,14.47,46.01,1021.82,2027.99,3332.98,2972.77,3373.99,600.69,593.98,15.02,0000 0000 0000 0000 000000
2016-06-10 05:57:36,0.01,0.54,0.00,25.87,29.37,32.05,14.33,45.81,1021.90,2027.99,3332.92,2972.25,3373.91,599.53,593.04,15.07,0000 0000 0000 0000 000000
2016-06-10 06:02:37,0.02,0.54,0.00,25.87,29.37,32.04,14.35,45.77,1021.86,2027.99,3332.26,2972.03,3373.27,599.70,593.15,15.12,0000 0000 0000 0000 000000
2016-06-10 06:07:39,0.00,0.54,0.00,25.87,29.37,32.02,14.34,45.70,1021.87,2027.99,3332.01,2972.00,3373.02,599.92,593.27,15.17,0000 0000 0000 0000 000000
2016-06-10 06:12:40,0.00,0.54,0.00,25.87,29.38,32.03,14.32,45.63,1021.99,2027.99,3332.00,2972.00,3373.00,599.64,593.03,15.22,0000 0000 0000 0000 000000
2016-06-10 06:17:41,0.01,0.54,0.00,25.88,29.39,32.05,14.38,45.70,1021.99,2027.99,3331.82,2971.98,3372.99,599.84,593.28,15.27,0000 0000 0000 0000 000000
2016-06-10 06:22:42,0.01,0.54,0.00,25.88,29.40,32.07,14.30,45.54,1022.01,2027.98,3331.32,2971.92,3372.88,599.77,593.11,15.32,0000 0000 0000 0000 000000
2016-06-10 06:27:44,0.03,0.54,0.00,25.89,29.40,32.08,14.42,45.68,1022.04,2027.98,3331.04,2971.44,3372.39,600.18,593.65,15.37,0000 0000 0000 0000 000000
2016-06-10 06:32:45,0.01,0.54,0.00,25.89,29.40,32.02,14.32,45.73,1022.19,2027.95,3331.00,2971.06,3372.04,599.71,593.31,15.42,0000 0000 0000 0000 000000
2016-06-10 06:37:46,-0.00,0.54,0.00,25.89,29.40,32.05,14.30,45.58,1022.36,2027.92,3330.95,2971.01,3372.00,600.20,593.75,15.47,0000 0000 0000 0000 000000
2016-06-10 06:42:48,0.01,0.54,0.00,25.89,29.40,32.05,14.39,45.73,1022.45,2027.93,3330.64,2971.00,3372.00,600.26,593.90,15.52,0000 0000 0000 0000 000000
2016-06-10 06:47:49,0.00,0.54,0.00,25.90,29.40,32.04,14.36,45.63,1022.47,2027.93,3330.21,2971.00,3371.98,599.98,593.63,15.57,0000 0000 0000 0000 000000
2016-06-10 06:52:50,0.00,0.54,0.00,25.90,29.40,32.07,14.40,45.70,1022.48,2027.89,3330.01,2970.98,3371.93,600.05,593.70,15.62,0000 0000 0000 0000 000000
2016-06-10 06:57:51,0.01,0.54,0.00,25.90,29.40,32.05,14.34,45.64,1022.48,2027.93,3330.00,2970.97,3371.68,599.78,593.53,15.67,0000 0000 0000 0000 000000
2016-06-10 07:02:53,0.00,0.54,0.00,25.89,29.40,32.08,14.40,45.65,1022.49,2027.91,3329.96,2970.92,3371.30,599.90,593.67,15.72,0000 0000 0000 0000 000000
2016-06-10 07:07:54,0.02,0.54,0.00,25.90,29.40,32.06,14.47,45.71,1022.49,2027.93,3329.62,2970.73,3371.04,600.56,594.23,15.77,0000 0000 0000 0000 000000
2016-06-10 07:12:55,0.01,0.55,0.00,25.89,29.40,32.05,14.38,45.53,1022.50,2027.94,3329.06,2970.28,3371.00,599.65,593.26,15.83,0000 0000 0000 0000 000000
2016-06-10 07:17:57,0.00,0.55,0.00,25.90,29.40,32.04,14.25,45.41,1022.53,2027.93,3329.01,2970.14,3371.00,599.56,593.26,15.88,0000 0000 0000 0000 000000
2016-06-10 07:22:58,-0.00,0.55,0.00,25.91,29.40,32.07,14.39,45.71,1022.56,2027.88,3329.00,2970.05,3370.99,599.83,593.55,15.93,0000 0000 0000 0000 000000
2016-06-10 07:27:59,0.01,0.55,0.00,25.91,29.40,32.06,14.31,45.33,1022.72,2027.94,3328.94,2970.01,3370.92,599.96,593.68,15.98,0000 0000 0000 0000 000000
2016-06-10 07:33:00,0.01,0.55,0.00,25.93,29.40,32.08,14.50,45.93,1022.72,2027.94,3328.62,2970.00,3370.69,600.22,593.96,16.03,0000 0000 0000 0000 000000
2016-06-10 07:38:02,0.01,0.55,0.00,25.93,29.40,32.05,14.41,45.77,1022.79,2027.92,3328.07,2970.00,3370.22,599.80,593.58,16.08,0000 0000 0000 0000 000000
2016-06-10 07:43:03,0.01,0.55,0.00,25.92,29.40,32.07,14.27,45.46,1022.95,2027.92,3328.00,2969.98,3370.01,599.60,593.31,16.13,0000 0000 0000 0000 000000
2016-06-10 07:48:04,-0.00,0.55,0.00,25.94,29.40,32.03,14.39,45.58,1022.96,2027.91,3328.00,2969.93,3370.00,600.31,594.11,16.18,0000 0000 0000 0000 000000
2016-06-10 07:53:05,0.01,0.55,0.00,25.95,29.40,32.04,14.37,45.45,1022.96,2027.96,3327.99,2969.92,3370.00,600.03,593.86,16.23,0000 0000 0000 0000 000000
2016-06-10 07:58:06,-0.00,0.55,0.00,25.96,29.40,32.02,14.28,45.48,1022.97,2027.96,3327.98,2969.82,3370.00,600.09,593.85,16.28,0000 0000 0000 0000 000000
2016-06-10 08:03:08,0.01,0.55,0.00,25.97,29.40,32.05,14.37,45.38,1022.97,2027.89,3327.90,2969.34,3369.98,599.74,593.54,16.33,0000 0000 0000 0000 000000
2016-06-10 08:08:10,0.01,0.55,0.00,25.97,29.41,32.06,14.34,45.42,1022.97,2027.84,3327.44,2969.16,3369.90,599.65,593.45,16.38,0000 0000 0000 0000 000000
2016-06-10 08:13:11,0.01,0.55,0.00,25.98,29.42,32.06,14.40,45.44,1022.97,2027.80,3327.07,2969.05,3369.56,599.89,593.60,16.43,0000 0000 0000 0000 000000
2016-06-10 08:18:12,0.00,0.55,0.00,25.97,29.42,32.03,14.38,45.68,1022.97,2027.76,3327.01,2969.01,3369.10,600.17,593.97,16.48,0000 0000 0000 0000 000000
2016-06-10 08:23:13,-0.01,0.55,0.00,25.98,29.42,32.06,14.47,45.83,1022.99,2027.57,3327.00,2969.00,3369.01,599.95,593.77,16.53,0000 0000 0000 0000 000000
2016-06-10 08:28:14,-0.04,0.55,0.00,25.97,29.42,32.05,14.40,45.78,1023.00,2027.25,3326.98,2968.98,3369.00,599.81,593.64,16.58,0000 0000 0000 0000 000000
2016-06-10 08:33:15,-0.00,0.55,0.00,25.97,29.42,32.06,14.44,45.73,1022.99,2027.13,3326.85,2968.95,3368.99,599.89,593.73,16.63,0000 0000 0000 0000 000000
2016-06-10 08:38:17,0.01,0.55,0.00,25.97,29.42,32.08,14.35,45.82,1022.98,2027.06,3326.18,2968.71,3368.84,600.00,593.72,16.68,0000 0000 0000 0000 000000
2016-06-10 08:43:18,0.01,0.55,0.00,25.97,29.42,32.08,14.28,45.40,1022.97,2027.05,3326.01,2968.22,3368.29,600.10,593.98,16.73,0000 0000 0000 0000 000000
2016-06-10 08:48:20,0.01,0.55,0.00,25.96,29.42,32.08,14.32,45.45,1022.98,2027.03,3326.00,2968.03,3368.03,599.70,593.43,16.78,0000 0000 0000 0000 000000
2016-06-10 08:53:21,0.00,0.55,0.00,25.96,29.42,32.05,14.44,45.71,1023.00,2027.03,3325.81,2968.00,3368.00,600.10,593.96,16.83,0000 0000 0000 0000 000000
2016-06-10 08:58:22,0.01,0.55,0.00,25.95,29.42,32.07,14.40,45.52,1023.04,2027.02,3325.26,2968.00,3368.00,599.76,593.75,16.88,0000 0000 0000 0000 000000
2016-06-10 09:03:24,0.01,0.55,0.00,25.96,29.42,32.06,14.33,45.36,1023.09,2027.04,3325.04,2968.00,3367.99,599.57,593.57,16.93,0000 0000 0000 0000 000000
2016-06-10 09:08:25,0.00,0.55,0.00,25.95,29.42,32.07,14.29,45.10,1023.23,2027.06,3325.00,2968.00,3367.98,600.37,594.31,16.98,0000 0000 0000 0000 000000
2016-06-10 09:13:27,0.00,0.55,0.00,25.95,29.42,32.06,14.37,45.47,1023.34,2027.06,3325.00,2967.99,3367.89,599.85,593.92,17.03,0000 0000 0000 0000 000000
2016-06-10 09:18:28,0.01,0.55,0.00,25.95,29.42,32.14,14.43,45.49,1023.44,2027.02,3324.97,2967.95,3367.34,600.17,594.29,17.08,0000 0000 0000 0000 000000
2016-06-10 09:23:29,0.01,0.55,0.00,25.94,29.42,32.10,14.46,45.68,1023.45,2027.03,3324.83,2967.94,3367.21,600.05,594.18,17.13,0000 0000 0000 0000 000000
2016-06-10 09:28:31,0.02,0.55,0.00,25.93,29.42,32.08,14.32,45.23,1023.43,2027.05,3324.31,2967.70,3367.04,600.05,594.03,17.18,0000 0000 0000 0000 000000
2016-06-10 09:33:32,0.00,0.55,0.00,25.93,29.42,32.05,14.40,45.51,1023.44,2027.04,3324.02,2967.30,3367.00,600.40,594.54,17.23,0000 0000 0000 0000 000000
2016-06-10 09:38:34,0.00,0.55,0.00,25.92,29.42,32.09,14.41,45.33,1023.45,2027.04,3324.00,2967.17,3367.00,600.26,594.35,17.28,0000 0000 0000 0000 000000
2016-06-10 09:43:35,0.01,0.55,0.00,25.90,29.42,32.12,14.36,45.25,1023.45,2027.07,3324.00,2967.08,3367.00,599.81,593.92,17.33,0000 0000 0000 0000 000000
2016-06-10 09:48:36,0.00,0.55,0.00,25.90,29.42,32.10,14.44,45.50,1023.45,2027.08,3323.94,2967.05,3366.99,600.29,594.26,17.38,0000 0000 0000 0000 000000
2016-06-10 09:53:37,0.00,0.55,0.00,25.90,29.40,32.09,14.49,45.73,1023.45,2027.12,3323.83,2967.01,3366.97,600.48,594.71,17.43,0000 0000 0000 0000 000000
2016-06-10 09:58:38,0.03,0.55,0.00,25.90,29.40,32.07,14.40,45.48,1023.44,2027.36,3323.76,2967.04,3366.98,599.98,594.21,17.48,0000 0000 0000 0000 000000
2016-06-10 10:03:39,0.01,0.56,0.00,25.89,29.40,32.08,14.34,45.12,1023.43,2027.47,3323.25,2967.01,3366.95,599.81,594.03,17.53,0000 0000 0000 0000 000000
2016-06-10 10:08:40,0.01,0.56,0.00,25.88,29.40,32.05,14.37,45.35,1023.39,2027.47,3323.04,2967.00,3366.87,599.68,593.93,17.58,0000 0000 0000 0000 000000
2016-06-10 10:13:42,0.01,0.56,0.00,25.87,29.39,32.03,14.40,45.32,1023.45,2027.57,3323.00,2967.00,3366.50,600.10,594.38,17.63,0000 0000 0000 0000 000000
2016-06-10 10:18:43,0.01,0.56,0.00,25.86,29.37,32.05,14.37,45.49,1023.45,2027.60,3322.99,2967.00,3366.09,599.78,594.01,17.68,0000 0000 0000 0000 000000
2016-06-10 10:23:45,0.02,0.56,0.00,25.84,29.37,32.06,14.39,45.42,1023.45,2027.82,3322.98,2967.00,3366.13,600.21,594.48,17.73,0000 0000 0000 0000 000000
2016-06-10 10:28:46,0.02,0.56,0.00,25.84,29.37,32.04,14.43,45.58,1023.45,2027.96,3322.94,2966.99,3366.13,599.89,594.32,17.78,0000 0000 0000 0000 000000
2016-06-10 10:33:48,0.00,0.56,0.00,25.84,29.37,32.05,14.33,45.33,1023.45,2027.96,3322.71,2966.99,3366.03,599.92,594.26,17.83,0000 0000 0000 0000 000000
2016-06-10 10:38:49,0.00,0.56,0.00,25.85,29.35,32.03,14.32,45.13,1023.44,2027.98,3322.33,2966.97,3366.00,599.64,593.97,17.88,0000 0000 0000 0000 000000
2016-06-10 10:43:50,0.00,0.56,0.00,25.83,29.35,31.99,14.42,45.23,1023.45,2027.97,3322.12,2966.97,3366.00,600.06,594.52,17.93,0000 0000 0000 0000 000000
2016-06-10 10:48:52,0.00,0.56,0.00,25.82,29.35,32.02,14.39,45.25,1023.45,2027.98,3322.01,2966.93,3366.00,600.13,594.50,17.98,0000 0000 0000 0000 000000
2016-06-10 10:53:53,0.00,0.56,0.00,25.82,29.34,32.00,14.37,45.10,1023.45,2027.99,3322.00,2966.94,3366.00,599.76,594.17,18.03,0000 0000 0000 0000 000000
2016-06-10 10:58:54,0.00,0.56,0.00,25.82,29.32,31.99,14.48,45.58,1023.45,2027.99,3322.00,2966.94,3366.00,600.47,594.93,18.08,0000 0000 0000 0000 000000
2016-06-10 11:03:55,0.01,0.56,0.00,25.82,29.32,31.99,14.41,45.26,1023.46,2027.99,3321.95,2966.60,3365.97,599.93,594.31,18.13,0000 0000 0000 0000 000000
2016-06-10 11:08:57,-0.01,0.56,0.00,25.80,29.32,31.98,14.37,45.11,1023.46,2027.99,3321.82,2966.40,3365.96,600.13,594.57,18.18,0000 0000 0000 0000 000000
2016-06-10 11:13:58,0.01,0.56,0.00,25.80,29.32,31.99,14.31,45.08,1023.46,2027.99,3321.72,2966.38,3365.96,599.83,594.23,18.23,0000 0000 0000 0000 000000
2016-06-10 11:18:59,0.00,0.56,0.00,25.79,29.30,31.97,14.34,45.17,1023.47,2027.99,3321.35,2966.17,3365.89,599.37,593.82,18.28,0000 0000 0000 0000 000000
2016-06-10 11:24:01,0.00,0.56,0.00,25.80,29.30,31.99,14.37,45.36,1023.45,2027.99,3321.10,2966.11,3365.80,600.38,594.84,18.33,0000 0000 0000 0000 000000
2016-06-10 11:29:02,0.01,0.56,0.00,25.81,29.30,31.95,14.37,45.32,1023.45,2027.99,3321.02,2966.05,3365.47,600.16,594.56,18.38,0000 0000 0000 0000 000000
2016-06-10 11:34:03,0.00,0.56,0.00,25.82,29.30,31.92,14.55,45.70,1023.46,2027.99,3321.00,2966.01,3365.12,600.31,594.77,18.43,0000 0000 0000 0000 000000
2016-06-10 11:39:04,0.00,0.56,0.00,25.82,29.30,31.92,14.46,45.60,1023.47,2027.99,3321.00,2966.00,3365.05,600.60,594.75,18.48,0000 0000 0000 0000 000000
2016-06-10 11:44:06,0.00,0.56,0.00,25.83,29.30,31.91,14.36,45.42,1023.45,2027.99,3320.99,2966.00,3365.05,599.92,594.25,18.53,0000 0000 0000 0000 000000
2016-06-10 11:49:07,0.00,0.56,0.00,25.85,29.29,31.92,14.36,45.21,1023.45,2027.99,3320.99,2966.01,3365.08,600.00,594.29,18.58,0000 0000 0000 0000 000000
2016-06-10 11:54:09,0.00,0.56,0.00,25.85,29.29,31.91,14.35,45.27,1023.40,2027.99,3320.99,2966.00,3365.05,599.98,594.17,18.63,0000 0000 0000 0000 000000
2016-06-10 11:59:10,0.00,0.56,0.00,25.85,29.29,31.93,14.34,45.28,1023.44,2027.99,3320.95,2966.00,3365.01,599.60,593.92,18.68,0000 0000 0000 0000 000000
2016-06-10 12:04:10,0.00,0.56,0.00,25.85,29.29,31.94,14.43,45.40,1023.45,2028.00,3320.87,2966.00,3365.00,599.67,593.79,18.73,0000 0000 0000 0000 000000
2016-06-10 12:09:12,0.00,0.56,0.00,25.83,29.29,31.95,14.44,45.33,1023.45,2028.00,3320.56,2966.00,3365.00,600.19,594.56,18.78,0000 0000 0000 0000 000000
2016-06-10 12:14:13,0.00,0.56,0.00,25.82,29.29,31.95,14.35,45.48,1023.45,2028.00,3320.13,2966.00,3365.00,600.22,594.49,18.83,0000 0000 0000 0000 000000
2016-06-10 12:19:14,0.00,0.56,0.00,25.82,29.29,31.94,14.36,45.38,1023.45,2028.00,3320.03,2965.99,3364.98,599.91,594.31,18.88,0000 0000 0000 0000 000000
2016-06-10 12:24:15,0.00,0.56,0.00,25.80,29.29,31.94,14.39,45.09,1023.45,2028.00,3320.00,2965.98,3364.98,599.58,594.05,18.94,0000 0000 0000 0000 000000
2016-06-10 12:29:16,0.00,0.56,0.00,25.78,29.28,31.96,14.44,45.39,1023.45,2028.00,3320.00,2965.96,3364.95,600.10,594.51,18.99,0000 0000 0000 0000 000000
2016-06-10 12:34:17,0.00,0.56,0.00,25.77,29.27,31.95,14.37,45.40,1023.45,2028.00,3320.00,2965.92,3364.88,600.16,594.51,19.04,0000 0000 0000 0000 000000
2016-06-10 12:39:19,0.00,0.56,0.00,25.77,29.27,31.94,14.36,45.30,1023.46,2028.00,3320.00,2965.92,3364.87,600.09,594.69,19.09,0000 0000 0000 0000 000000
2016-06-10 12:44:20,0.00,0.56,0.00,25.75,29.27,31.92,14.46,45.31,1023.45,2028.00,3320.00,2965.92,3364.85,599.84,594.39,19.14,0000 0000 0000 0000 000000
2016-06-10 12:49:22,-0.00,0.56,0.00,25.73,29.25,31.94,14.45,45.51,1023.45,2028.00,3320.00,2965.93,3364.83,600.07,594.75,19.19,0000 0000 0000 0000 000000
2016-06-10 12:54:23,0.00,0.56,0.00,25.72,29.25,31.91,14.49,45.39,1023.42,2028.00,3319.99,2965.93,3364.75,600.41,594.89,19.24,0000 0000 0000 0000 000000